TimeCST,TemperatureF,Dew PointF,Humidity,Sea Level PressureIn,VisibilityMPH,Wind Direction,Wind SpeedMPH,Gust SpeedMPH,PrecipitationIn,Events,Conditions,WindDirDegrees,DateUTC
12:15 AM,10.2,3.2,73,30.18,10.0,Calm,Calm,-,N/A,,Clear,0,2013-02-17 06:15:00
12:35 AM,9.0,3.6,79,30.18,10.0,Calm,Calm,-,N/A,,Clear,0,2013-02-17 06:35:00
12:55 AM,8.6,3.4,79,30.18,10.0,Calm,Calm,-,N/A,,Clear,0,2013-02-17 06:55:00
1:15 AM,8.4,5.0,86,30.18,10.0,Calm,Calm,-,N/A,,Clear,0,2013-02-17 07:15:00
1:35 AM,6.3,3.4,88,30.17,10.0,Calm,Calm,-,N/A,,Clear,0,2013-02-17 07:35:00
1:55 AM,7.2,3.9,87,30.18,10.0,Calm,Calm,-,N/A,,Clear,0,2013-02-17 07:55:00
2:15 AM,9.5,4.6,81,30.18,10.0,Calm,Calm,-,N/A,,Clear,0,2013-02-17 08:15:00
2:35 AM,6.6,3.0,85,30.18,10.0,Calm,Calm,-,N/A,,Clear,0,2013-02-17 08:35:00
2:55 AM,5.5,2.5,87,30.17,10.0,Calm,Calm,-,N/A,,Clear,0,2013-02-17 08:55:00
3:15 AM,7.3,4.5,88,30.17,10.0,Calm,Calm,-,N/A,,Clear,0,2013-02-17 09:15:00
3:35 AM,6.6,3.2,86,30.17,10.0,Calm,Calm,-,N/A,,Clear,0,2013-02-17 09:35:00
3:55 AM,8.6,4.8,85,30.17,10.0,Calm,Calm,-,N/A,,Clear,0,2013-02-17 09:55:00
4:15 AM,6.4,3.4,87,30.18,10.0,Calm,Calm,-,N/A,,Clear,0,2013-02-17 10:15:00
4:35 AM,5.2,1.9,86,30.19,10.0,Calm,Calm,-,N/A,,Clear,0,2013-02-17 10:35:00
4:55 AM,6.1,3.0,87,30.19,10.0,Calm,Calm,-,N/A,,Clear,0,2013-02-17 10:55:00
5:15 AM,5.5,1.8,84,30.19,10.0,Calm,Calm,-,N/A,,Clear,0,2013-02-17 11:15:00
5:35 AM,5.0,1.9,87,30.20,10.0,Calm,Calm,-,N/A,,Clear,0,2013-02-17 11:35:00
5:55 AM,5.4,2.5,88,30.20,10.0,Calm,Calm,-,N/A,,Clear,0,2013-02-17 11:55:00
6:15 AM,4.8,1.8,87,30.20,10.0,Calm,Calm,-,N/A,,Clear,0,2013-02-17 12:15:00
6:35 AM,5.0,1.8,86,30.20,10.0,Calm,Calm,-,N/A,,Clear,0,2013-02-17 12:35:00
6:55 AM,5.2,1.2,84,30.20,10.0,Calm,Calm,-,N/A,,Clear,0,2013-02-17 12:55:00
7:15 AM,7.9,4.3,85,30.20,10.0,Calm,Calm,-,N/A,,Clear,0,2013-02-17 13:15:00
7:35 AM,10.2,6.8,86,30.21,10.0,Calm,Calm,-,N/A,,Clear,0,2013-02-17 13:35:00
7:55 AM,13.3,7.3,77,30.21,10.0,Calm,Calm,-,N/A,,Clear,0,2013-02-17 13:55:00
8:15 AM,15.1,5.0,64,30.21,10.0,Calm,Calm,-,N/A,,Clear,0,2013-02-17 14:15:00
8:35 AM,16.3,3.4,57,30.21,10.0,Calm,Calm,-,N/A,,Clear,0,2013-02-17 14:35:00
8:55 AM,16.7,2.1,53,30.21,10.0,Calm,Calm,-,N/A,,Clear,0,2013-02-17 14:55:00
9:15 AM,17.8,2.5,51,30.21,10.0,Calm,Calm,-,N/A,,Clear,0,2013-02-17 15:15:00
9:35 AM,17.8,1.0,48,30.21,10.0,Calm,Calm,-,N/A,,Clear,0,2013-02-17 15:35:00
9:55 AM,19.6,3.7,50,30.21,10.0,Calm,Calm,-,N/A,,Clear,0,2013-02-17 15:55:00
10:15 AM,19.6,2.5,48,30.21,10.0,Calm,Calm,-,N/A,,Clear,0,2013-02-17 16:15:00
10:35 AM,20.8,0.9,42,30.20,10.0,Calm,Calm,-,N/A,,Clear,0,2013-02-17 16:35:00
10:55 AM,21.6,1.2,41,30.21,10.0,ESE,3.5,-,N/A,,Clear,110,2013-02-17 16:55:00
11:15 AM,22.6,1.9,41,30.21,10.0,SSW,3.5,-,N/A,,Clear,200,2013-02-17 17:15:00
11:35 AM,23.7,2.8,41,30.21,10.0,WSW,4.6,-,N/A,,Clear,250,2013-02-17 17:35:00
11:55 AM,25.0,4.8,42,30.20,10.0,SSW,4.6,-,N/A,,Clear,200,2013-02-17 17:55:00
12:15 PM,25.5,3.6,39,30.19,10.0,Calm,Calm,-,N/A,,Clear,0,2013-02-17 18:15:00
12:55 PM,27.0,1.2,33,30.18,10.0,South,3.5,-,N/A,,Clear,170,2013-02-17 18:55:00
1:15 PM,28.0,3.0,34,30.17,10.0,SE,4.6,-,N/A,,Clear,140,2013-02-17 19:15:00
1:35 PM,28.4,7.3,41,30.16,10.0,Calm,Calm,-,N/A,,Clear,0,2013-02-17 19:35:00
1:55 PM,28.8,5.9,38,30.15,10.0,South,4.6,-,N/A,,Clear,180,2013-02-17 19:55:00
2:15 PM,29.3,5.0,36,30.14,10.0,South,5.8,-,N/A,,Clear,190,2013-02-17 20:15:00
2:35 PM,29.8,5.5,36,30.13,10.0,SSW,4.6,-,N/A,,Clear,200,2013-02-17 20:35:00
2:55 PM,30.7,5.5,35,30.12,10.0,South,5.8,-,N/A,,Clear,190,2013-02-17 20:55:00
3:15 PM,30.6,7.2,37,30.12,10.0,SSE,6.9,-,N/A,,Clear,160,2013-02-17 21:15:00
3:35 PM,29.8,7.3,39,30.11,10.0,SSE,8.1,-,N/A,,Clear,150,2013-02-17 21:35:00
3:55 PM,30.6,7.7,38,30.11,10.0,SSE,8.1,-,N/A,,Clear,160,2013-02-17 21:55:00
4:15 PM,29.7,8.4,41,30.11,10.0,SSE,6.9,-,N/A,,Clear,160,2013-02-17 22:15:00
4:35 PM,29.3,9.9,44,30.10,10.0,SSE,5.8,-,N/A,,Clear,150,2013-02-17 22:35:00
4:55 PM,29.1,10.6,46,30.09,10.0,SSE,5.8,-,N/A,,Clear,160,2013-02-17 22:55:00
5:15 PM,28.8,11.3,48,30.09,10.0,SSE,8.1,-,N/A,,Clear,150,2013-02-17 23:15:00
5:35 PM,28.2,12.0,51,30.09,10.0,SSE,5.8,-,N/A,,Clear,150,2013-02-17 23:35:00
5:55 PM,28.0,12.9,53,30.09,10.0,SSE,4.6,-,N/A,,Clear,150,2013-02-17 23:55:00
6:15 PM,27.3,12.9,55,30.08,10.0,SE,5.8,-,N/A,,Clear,140,2013-02-18 00:15:00
6:35 PM,27.0,13.8,58,30.08,10.0,SE,5.8,-,N/A,,Clear,130,2013-02-18 00:35:00
6:55 PM,27.3,14.5,59,30.08,10.0,SE,6.9,-,N/A,,Clear,140,2013-02-18 00:55:00
7:15 PM,27.0,14.9,60,30.07,10.0,SE,5.8,-,N/A,,Clear,130,2013-02-18 01:15:00
7:35 PM,27.1,14.9,60,30.07,10.0,SE,5.8,-,N/A,,Clear,130,2013-02-18 01:35:00
7:55 PM,27.1,15.4,61,30.06,10.0,SE,9.2,-,N/A,,Clear,130,2013-02-18 01:55:00
8:15 PM,27.3,15.6,61,30.06,10.0,SE,6.9,-,N/A,,Clear,140,2013-02-18 02:15:00
8:35 PM,27.3,16.2,63,30.05,10.0,SE,9.2,-,N/A,,Clear,140,2013-02-18 02:35:00
8:55 PM,27.3,16.7,64,30.05,10.0,SSE,8.1,-,N/A,,Clear,150,2013-02-18 02:55:00
9:15 PM,27.0,17.2,67,30.05,10.0,SE,6.9,-,N/A,,Clear,140,2013-02-18 03:15:00
9:35 PM,26.8,17.2,67,30.05,10.0,SE,5.8,-,N/A,,Clear,140,2013-02-18 03:35:00
9:55 PM,26.6,17.4,68,30.05,10.0,SSE,3.5,-,N/A,,Clear,150,2013-02-18 03:55:00
10:15 PM,26.6,17.4,68,30.04,10.0,SE,8.1,-,N/A,,Clear,140,2013-02-18 04:15:00
10:35 PM,27.1,17.4,67,30.03,10.0,SE,8.1,-,N/A,,Clear,140,2013-02-18 04:35:00
10:55 PM,27.5,17.1,65,30.02,10.0,SSE,8.1,-,N/A,,Clear,150,2013-02-18 04:55:00
11:15 PM,27.5,17.4,66,30.01,10.0,SSE,8.1,-,N/A,,Clear,150,2013-02-18 05:15:00
11:35 PM,27.5,17.8,67,30.01,10.0,SE,8.1,-,N/A,,Clear,140,2013-02-18 05:35:00
11:55 PM,27.5,18.3,68,30.00,10.0,SSE,8.1,-,N/A,,Clear,150,2013-02-18 05:55:00